Location: R�serve Fauniques des Laurentides
(47.3100°N, 71.1900°W)
Time: 15:07:07
(UTC-04:00)

Cosmos 1674 - Visible Passes

Search period start: 01 September 2014 00:00
Search period end: 11 September 2014 00:00
Orbit: 514 x 544 km, 82.5° (Epoch: 01 September)

Date Brightness Start Highest point End Pass type
(mag) Time Alt. Az. Time Alt. Az. Time Alt. Az.
01 Sep 5.5 23:29:52 10° N 23:30:50 17° N 23:30:50 17° N visible
02 Sep 5.4 23:19:00 10° N 23:19:58 17° N 23:19:58 17° N visible
03 Sep 5.4 23:08:07 10° N 23:09:06 17° N 23:09:06 17° N visible
04 Sep 5.3 22:57:15 10° N 22:58:15 17° N 22:58:15 17° N visible
05 Sep 5.3 22:46:22 10° N 22:47:24 17° N 22:47:24 17° N visible
06 Sep 5.2 22:35:29 10° N 22:36:33 17° NNE 22:36:33 17° NNE visible
07 Sep 5.2 22:24:36 10° N 22:25:42 17° NNE 22:25:42 17° NNE visible
08 Sep 5.1 22:13:43 10° N 22:14:51 17° NNE 22:14:51 17° NNE visible
09 Sep 5.0 22:02:49 10° N 22:04:00 17° NNE 22:04:00 17° NNE visible
09 Sep 6.1 23:39:12 10° NW 23:39:17 10° NW 23:39:17 10° NW visible
10 Sep 5.0 21:51:56 10° N 21:53:10 18° NNE 21:53:10 18° NNE visible
10 Sep 6.0 23:28:10 10° NW 23:28:27 11° NW 23:28:27 11° NW visible
